Location: Bessat
(45.8735°N, 1.9924°E)
Time: 04:42:47
(UTC+00:00)

Sich 1 - Pass Details

Date: 11 May 2021
Orbit: 595 x 624 km, 82.5° (Epoch: 14 June)

Event Time Altitude Azimuth Distance (km) Brightness Sun altitude
Rises 19:38:08 0° 356° (N) 2,867 7.1 -4.7°
Reaches altitude 10° 19:40:25 10° 2° (N) 1,964 6.1 -5.0°
Maximum altitude 19:44:38 49° 77° (ENE) 794 3.4 -5.6°
Drops below altitude 10° 19:48:51 10° 153° (SSE) 1,966 5.1 -6.3°
Enters shadow 19:50:18 - 157° (SSE) 2,534 5.7 -6.5°
